• In Netherlands
  • List of Countries
  • For 7 days
  • Water Temperature
  • Satellite Maps
  • Weather Map
  • Weather Widgets
  • user-avatar
    Login

    Hourly Weather Kaprun

    Today, 18 January, Thursday

    Time Temperature Precipitation Wind Pressure Humidity
    00:00 -13°C° 0.6 mm 3 mps 588 mmHg 94%
    01:00 -12°C° 0 mm 2 mps 588 mmHg 94%
    02:00 -13°C° 0.4 mm 2 mps 589 mmHg 94%
    03:00 -13°C° 0.4 mm 2 mps 589 mmHg 94%
    04:00 -13°C° 0.4 mm 2 mps 589 mmHg 93%
    05:00 -13°C° 0.3 mm 2 mps 589 mmHg 92%
    06:00 -13°C° 0.3 mm 2 mps 588 mmHg 91%
    07:00 -13°C° 0 mm 2 mps 588 mmHg 89%
    08:00 -12°C° 0.4 mm 2 mps 588 mmHg 89%
    09:00 -12°C° 0.4 mm 3 mps 588 mmHg 89%
    10:00 -10°C° 0.4 mm 3 mps 588 mmHg 89%
    11:00 -9°C° 0.4 mm 3 mps 588 mmHg 87%
    12:00 -8°C° 0.4 mm 3 mps 588 mmHg 86%
    13:00 -7°C° 0.4 mm 3 mps 588 mmHg 85%
    14:00 -6°C° 0 mm 2 mps 588 mmHg 86%
    15:00 -6°C° 0 mm 2 mps 587 mmHg 86%
    16:00 -5°C° 0 mm 2 mps 587 mmHg 87%
    17:00 -6°C° 0 mm 2 mps 587 mmHg 87%
    18:00 -7°C° 0 mm 2 mps 586 mmHg 86%
    19:00 -9°C° 0 mm 3 mps 586 mmHg 85%
    20:00 -8°C° 0.4 mm 2 mps 586 mmHg 87%
    21:00 -8°C° 0.4 mm 2 mps 586 mmHg 88%
    22:00 -7°C° 0.4 mm 2 mps 587 mmHg 90%
    23:00 -6°C° 1 mm 1 mps 587 mmHg 91%

    Tomorrow, 19 January, Friday

    Time Temperature Precipitation Wind Pressure Humidity
    00:00 -6°C° 1 mm 1 mps 587 mmHg 92%
    01:00 -6°C° 1 mm 1 mps 587 mmHg 93%
    02:00 -6°C° 1.1 mm 1 mps 587 mmHg 93%
    03:00 -6°C° 1.1 mm 1 mps 586 mmHg 93%
    04:00 -6°C° 1.1 mm 1 mps 586 mmHg 93%
    05:00 -6°C° 1.5 mm 1 mps 587 mmHg 94%
    06:00 -6°C° 1.5 mm 1 mps 587 mmHg 95%
    07:00 -6°C° 1.5 mm 1 mps 587 mmHg 96%
    08:00 -6°C° 1.2 mm 1 mps 587 mmHg 96%
    09:00 -4°C° 1.2 mm 1 mps 588 mmHg 96%
    10:00 -6°C° 1.2 mm 2 mps 588 mmHg 96%
    11:00 -6°C° 0.8 mm 2 mps 588 mmHg 96%
    12:00 -7°C° 0.8 mm 2 mps 588 mmHg 95%
    13:00 -7°C° 0.8 mm 2 mps 588 mmHg 95%
    14:00 -7°C° 0.4 mm 2 mps 588 mmHg 95%
    15:00 -8°C° 0.4 mm 2 mps 588 mmHg 94%
    16:00 -8°C° 0.4 mm 2 mps 588 mmHg 94%
    17:00 -9°C° 0.1 mm 2 mps 588 mmHg 94%
    18:00 -10°C° 0.1 mm 2 mps 588 mmHg 94%
    19:00 -12°C° 0.1 mm 2 mps 588 mmHg 94%
    20:00 -13°C° 0.1 mm 2 mps 588 mmHg 93%
    21:00 -13°C° 0.1 mm 2 mps 588 mmHg 93%
    22:00 -14°C° 0.1 mm 2 mps 588 mmHg 92%
    23:00 -14°C° 0.1 mm 2 mps 588 mmHg 91%

    Day after tomorrow, 20 January, Saturday

    Time Temperature Precipitation Wind Pressure Humidity
    00:00 -14°C° 0.1 mm 2 mps 588 mmHg 90%
    01:00 -14°C° 0.1 mm 2 mps 588 mmHg 88%
    02:00 -14°C° 0.1 mm 2 mps 588 mmHg 88%
    03:00 -12°C° 0.1 mm 1 mps 588 mmHg 88%
    04:00 -12°C° 0.1 mm 1 mps 588 mmHg 88%
    05:00 -12°C° 0.2 mm 1 mps 588 mmHg 88%
    06:00 -12°C° 0.2 mm 1 mps 588 mmHg 87%
    07:00 -12°C° 0.2 mm 1 mps 588 mmHg 87%
    08:00 -11°C° 0.1 mm 1 mps 588 mmHg 86%
    09:00 -12°C° 0.1 mm 2 mps 589 mmHg 86%
    10:00 -12°C° 0.1 mm 2 mps 589 mmHg 86%
    11:00 -10°C° 0.1 mm 2 mps 589 mmHg 84%
    12:00 -9°C° 0.1 mm 2 mps 588 mmHg 82%
    13:00 -8°C° 0.1 mm 2 mps 588 mmHg 81%
    14:00 -8°C° 0.1 mm 2 mps 587 mmHg 83%
    15:00 -8°C° 0.1 mm 2 mps 587 mmHg 85%
    16:00 -9°C° 0.1 mm 2 mps 586 mmHg 88%
    17:00 -9°C° 0.2 mm 2 mps 585 mmHg 89%
    18:00 -10°C° 0.2 mm 2 mps 585 mmHg 91%
    19:00 -10°C° 0.2 mm 2 mps 584 mmHg 93%
    20:00 -10°C° 0.8 mm 2 mps 584 mmHg 94%
    21:00 -10°C° 0.8 mm 2 mps 584 mmHg 95%
    22:00 -10°C° 0.8 mm 2 mps 584 mmHg 96%
    23:00 -10°C° 1.4 mm 2 mps 585 mmHg 96%

    21 January, Sunday

    Time Temperature Precipitation Wind Pressure Humidity
    00:00 -10°C° 1.4 mm 2 mps 585 mmHg 96%
    01:00 -12°C° 1.4 mm 3 mps 586 mmHg 97%
    02:00 -12°C° 0.9 mm 3 mps 586 mmHg 96%
    03:00 -13°C° 0.9 mm 3 mps 587 mmHg 95%
    04:00 -14°C° 0.9 mm 3 mps 587 mmHg 94%
    05:00 -14°C° 0.5 mm 3 mps 588 mmHg 94%
    06:00 -15°C° 0.5 mm 3 mps 588 mmHg 94%
    07:00 -15°C° 0.5 mm 3 mps 589 mmHg 94%
    08:00 -15°C° 0.4 mm 3 mps 589 mmHg 93%
    09:00 -14°C° 0.4 mm 3 mps 590 mmHg 92%
    10:00 -14°C° 0.4 mm 3 mps 591 mmHg 91%
    11:00 -14°C° 0.2 mm 3 mps 591 mmHg 87%
    12:00 -13°C° 0.2 mm 3 mps 591 mmHg 84%
    13:00 -13°C° 0.2 mm 3 mps 592 mmHg 81%
    14:00 -12°C° 0 mm 2 mps 592 mmHg 83%
    15:00 -13°C° 0 mm 2 mps 591 mmHg 85%
    16:00 -13°C° 0 mm 2 mps 591 mmHg 87%
    17:00 -14°C° 0 mm 2 mps 591 mmHg 87%
    18:00 -15°C° 0 mm 2 mps 591 mmHg 86%
    19:00 -15°C° 0 mm 2 mps 591 mmHg 86%
    20:00 -12°C° 0.3 mm 1 mps 591 mmHg 88%
    21:00 -12°C° 0.3 mm 1 mps 592 mmHg 89%
    22:00 -11°C° 0.3 mm 1 mps 592 mmHg 91%
    23:00 -10°C° 1 mm 1 mps 592 mmHg 93%

    22 January, Monday

    Time Temperature Precipitation Wind Pressure Humidity
    00:00 -9°C° 1 mm 1 mps 592 mmHg 94%
    01:00 -8°C° 1 mm 1 mps 593 mmHg 95%
    02:00 -8°C° 2.3 mm 1 mps 593 mmHg 96%
    03:00 -7°C° 2.3 mm 1 mps 593 mmHg 96%
    04:00 -6°C° 2.3 mm 1 mps 592 mmHg 96%
    05:00 -6°C° 2.8 mm 1 mps 593 mmHg 97%
    06:00 -4°C° 2.8 mm 1 mps 593 mmHg 97%
    07:00 -4°C° 2.8 mm 1 mps 594 mmHg 98%
    08:00 -3°C° 1.9 mm 1 mps 594 mmHg 97%
    09:00 -4°C° 1.9 mm 2 mps 595 mmHg 97%
    10:00 -4°C° 1.9 mm 2 mps 595 mmHg 97%
    11:00 -4°C° 2 mm 2 mps 596 mmHg 97%
    12:00 -3°C° 2 mm 2 mps 596 mmHg 97%
    13:00 -3°C° 2 mm 2 mps 596 mmHg 97%
    14:00 -3°C° 0.9 mm 2 mps 596 mmHg 97%
    15:00 -3°C° 0.9 mm 2 mps 597 mmHg 97%
    16:00 -3°C° 0.9 mm 2 mps 597 mmHg 96%
    17:00 -3°C° 0.6 mm 2 mps 597 mmHg 96%
    18:00 -4°C° 0.6 mm 2 mps 597 mmHg 95%
    19:00 -4°C° 0.6 mm 2 mps 597 mmHg 94%
    20:00 -4°C° 0.4 mm 2 mps 597 mmHg 94%
    21:00 -4°C° 0.4 mm 2 mps 597 mmHg 94%
    22:00 -4°C° 0.4 mm 2 mps 597 mmHg 94%
    23:00 -4°C° 1.2 mm 2 mps 598 mmHg 95%

    23 January, Tuesday

    Time Temperature Precipitation Wind Pressure Humidity
    00:00 -3°C° 1.2 mm 2 mps 598 mmHg 95%
    01:00 -3°C° 1.2 mm 2 mps 598 mmHg 95%
    02:00 -3°C° 1 mm 2 mps 598 mmHg 96%
    03:00 -3°C° 1 mm 2 mps 598 mmHg 96%
    04:00 -3°C° 1 mm 2 mps 598 mmHg 96%
    05:00 -3°C° 0.2 mm 2 mps 599 mmHg 95%
    06:00 -4°C° 0.2 mm 2 mps 599 mmHg 95%
    07:00 -4°C° 0.2 mm 2 mps 599 mmHg 95%
    08:00 -3°C° 0.1 mm 2 mps 599 mmHg 96%
    09:00 -3°C° 0.1 mm 2 mps 600 mmHg 96%
    10:00 -3°C° 0.1 mm 2 mps 600 mmHg 97%
    11:00 -3°C° 0.2 mm 2 mps 600 mmHg 97%
    12:00 -2°C° 0.2 mm 2 mps 600 mmHg 98%
    13:00 -2°C° 0.2 mm 2 mps 600 mmHg 98%
    14:00 -2°C° 0.1 mm 2 mps 600 mmHg 97%
    15:00 -2°C° 0.1 mm 2 mps 601 mmHg 97%
    16:00 -3°C° 0.1 mm 2 mps 601 mmHg 96%
    17:00 -3°C° 0.1 mm 2 mps 601 mmHg 94%
    18:00 -4°C° 0.1 mm 2 mps 601 mmHg 92%
    19:00 -5°C° 0.1 mm 2 mps 601 mmHg 90%
    20:00 -5°C° 0 mm 2 mps 601 mmHg 90%
    21:00 -5°C° 0 mm 2 mps 601 mmHg 89%
    22:00 -6°C° 0 mm 2 mps 601 mmHg 89%
    23:00 -6°C° 0 mm 2 mps 601 mmHg 88%
    Show more